Location: Prague
(50.0830°N, 14.4670°E)
Time: 08:48:14
(UTC+02:00)

RS-15 - Pass Details

Date: 07 April 2023
Orbit: 1885 x 2159 km, 64.8° (Epoch: 29 May)

Event Time Altitude Azimuth Distance (km) Brightness Sun altitude
Rises 22:48:28 0° 315° (NW) 5,661 11.8 -25.8°
Reaches altitude 10° 22:52:00 10° 318° (NW) 4,634 11.0 -26.1°
Maximum altitude 23:04:09 74° 44° (NE) 2,128 8.1 -27.3°
Enters shadow 23:09:25 39° 119° (ESE) 2,760 8.3 -27.7°
